When you browse on this site, cookies collect data to enhance your experience and personalize the content and advertising you see.
Visit our Privacy Policy to learn more. By continuing to use the site, you agree to this use of cookies and data.
  • In Hungary
  • List of Countries
  • For 7 days
  • Water Temperature
  • Weather Map
  • News
  • Weather Widgets
  • user-avatar
    Login

    Hourly Weather Lobamba

    Today, 22 November, Friday

    Time Temperature Precipitation Wind Pressure Humidity
    00:00 +20°C° 0 mm 0 mps 696 mmHg 96%
    01:00 +20°C° 0 mm 0 mps 696 mmHg 96%
    02:00 +22°C° 0 mm 1 mps 696 mmHg 95%
    03:00 +20°C° 0 mm 0 mps 696 mmHg 95%
    04:00 +20°C° 0 mm 0 mps 696 mmHg 95%
    05:00 +19°C° 0 mm 0 mps 696 mmHg 96%
    06:00 +21°C° 0 mm 0 mps 696 mmHg 89%
    07:00 +23°C° 0 mm 0 mps 697 mmHg 83%
    08:00 +26°C° 0 mm 1 mps 697 mmHg 76%
    09:00 +27°C° 0.1 mm 1 mps 697 mmHg 74%
    10:00 +28°C° 0.1 mm 2 mps 697 mmHg 71%
    11:00 +28°C° 0.1 mm 2 mps 697 mmHg 68%
    12:00 +29°C° 0.2 mm 3 mps 696 mmHg 67%
    13:00 +29°C° 0.2 mm 3 mps 696 mmHg 66%
    14:00 +30°C° 0.2 mm 3 mps 696 mmHg 65%
    15:00 +29°C° 0.4 mm 3 mps 695 mmHg 69%
    16:00 +28°C° 0.4 mm 3 mps 695 mmHg 72%
    17:00 +28°C° 0.4 mm 3 mps 695 mmHg 75%
    18:00 +26°C° 0.2 mm 2 mps 695 mmHg 82%
    19:00 +25°C° 0.2 mm 2 mps 696 mmHg 89%
    20:00 +23°C° 0.2 mm 1 mps 696 mmHg 96%
    21:00 +23°C° 0.1 mm 1 mps 696 mmHg 96%
    22:00 +23°C° 0.1 mm 1 mps 697 mmHg 96%
    23:00 +23°C° 0.1 mm 1 mps 697 mmHg 96%

    Tomorrow, 23 November, Saturday

    Time Temperature Precipitation Wind Pressure Humidity
    00:00 +23°C° 0.1 mm 1 mps 697 mmHg 96%
    01:00 +23°C° 0.1 mm 1 mps 697 mmHg 97%
    02:00 +22°C° 0.1 mm 1 mps 696 mmHg 97%
    03:00 +22°C° 0 mm 1 mps 696 mmHg 97%
    04:00 +22°C° 0 mm 1 mps 696 mmHg 97%
    05:00 +22°C° 0 mm 1 mps 696 mmHg 97%
    06:00 +23°C° 0 mm 1 mps 697 mmHg 90%
    07:00 +25°C° 0 mm 2 mps 697 mmHg 83%
    08:00 +26°C° 0 mm 2 mps 697 mmHg 76%
    09:00 +29°C° 0 mm 2 mps 697 mmHg 66%
    10:00 +31°C° 0 mm 3 mps 697 mmHg 56%
    11:00 +34°C° 0 mm 3 mps 697 mmHg 46%
    12:00 +34°C° 0 mm 3 mps 696 mmHg 47%
    13:00 +34°C° 0 mm 3 mps 695 mmHg 48%
    14:00 +34°C° 0 mm 4 mps 694 mmHg 48%
    15:00 +32°C° 1.6 mm 4 mps 694 mmHg 57%
    16:00 +28°C° 1.6 mm 4 mps 694 mmHg 66%
    17:00 +25°C° 1.6 mm 5 mps 693 mmHg 75%
    18:00 +25°C° 0.6 mm 4 mps 694 mmHg 75%
    19:00 +23°C° 0.6 mm 4 mps 695 mmHg 75%
    20:00 +22°C° 0.6 mm 4 mps 696 mmHg 74%
    21:00 +22°C° 0 mm 3 mps 696 mmHg 75%
    22:00 +23°C° 0 mm 2 mps 697 mmHg 76%
    23:00 +23°C° 0 mm 1 mps 697 mmHg 76%

    Day after tomorrow, 24 November, Sunday

    Time Temperature Precipitation Wind Pressure Humidity
    00:00 +22°C° 0 mm 1 mps 697 mmHg 80%
    01:00 +21°C° 0 mm 1 mps 696 mmHg 83%
    02:00 +19°C° 0 mm 0 mps 696 mmHg 86%
    03:00 +19°C° 0 mm 0 mps 696 mmHg 87%
    04:00 +18°C° 0 mm 0 mps 696 mmHg 87%
    05:00 +18°C° 0 mm 0 mps 697 mmHg 88%
    06:00 +20°C° 0 mm 0 mps 697 mmHg 80%
    07:00 +23°C° 0 mm 0 mps 698 mmHg 71%
    08:00 +27°C° 0 mm 1 mps 698 mmHg 63%
    09:00 +29°C° 0 mm 1 mps 698 mmHg 58%
    10:00 +30°C° 0 mm 1 mps 698 mmHg 52%
    11:00 +32°C° 0 mm 2 mps 698 mmHg 47%
    12:00 +33°C° 0.1 mm 3 mps 697 mmHg 48%
    13:00 +33°C° 0.1 mm 4 mps 697 mmHg 49%
    14:00 +34°C° 0.1 mm 4 mps 696 mmHg 49%
    15:00 +30°C° 2.5 mm 4 mps 696 mmHg 59%
    16:00 +28°C° 2.5 mm 4 mps 695 mmHg 68%
    17:00 +25°C° 2.5 mm 3 mps 695 mmHg 77%
    18:00 +24°C° 0.9 mm 3 mps 695 mmHg 82%
    19:00 +23°C° 0.9 mm 2 mps 696 mmHg 87%
    20:00 +22°C° 0.9 mm 1 mps 696 mmHg 91%
    21:00 +22°C° 0.8 mm 1 mps 697 mmHg 91%
    22:00 +22°C° 0.8 mm 1 mps 697 mmHg 90%
    23:00 +21°C° 0.8 mm 2 mps 697 mmHg 90%

    25 November, Monday

    Time Temperature Precipitation Wind Pressure Humidity
    00:00 +21°C° 0 mm 1 mps 697 mmHg 91%
    01:00 +21°C° 0 mm 1 mps 697 mmHg 93%
    02:00 +20°C° 0 mm 1 mps 697 mmHg 95%
    03:00 +20°C° 0 mm 1 mps 697 mmHg 94%
    04:00 +20°C° 0 mm 1 mps 697 mmHg 94%
    05:00 +20°C° 0 mm 1 mps 698 mmHg 94%
    06:00 +21°C° 0 mm 1 mps 698 mmHg 91%
    07:00 +20°C° 0 mm 0 mps 699 mmHg 89%
    08:00 +21°C° 0 mm 0 mps 699 mmHg 86%
    09:00 +24°C° 0 mm 1 mps 699 mmHg 83%
    10:00 +25°C° 0 mm 1 mps 699 mmHg 80%
    11:00 +26°C° 0 mm 2 mps 698 mmHg 78%
    12:00 +26°C° 0.2 mm 2 mps 698 mmHg 75%
    13:00 +27°C° 0.2 mm 2 mps 697 mmHg 73%
    14:00 +28°C° 0.2 mm 3 mps 696 mmHg 71%
    15:00 +27°C° 0.7 mm 3 mps 696 mmHg 75%
    16:00 +26°C° 0.7 mm 3 mps 696 mmHg 79%
    17:00 +25°C° 0.7 mm 3 mps 696 mmHg 83%
    18:00 +25°C° 0 mm 2 mps 696 mmHg 86%
    19:00 +24°C° 0 mm 2 mps 697 mmHg 89%
    20:00 +23°C° 0 mm 1 mps 698 mmHg 92%
    21:00 +23°C° 0.1 mm 1 mps 698 mmHg 93%
    22:00 +23°C° 0.1 mm 1 mps 698 mmHg 95%
    23:00 +22°C° 0.1 mm 1 mps 699 mmHg 97%

    26 November, Tuesday

    Time Temperature Precipitation Wind Pressure Humidity
    00:00 +22°C° 0.2 mm 1 mps 698 mmHg 97%
    01:00 +22°C° 0.2 mm 1 mps 698 mmHg 97%
    02:00 +21°C° 0.2 mm 1 mps 698 mmHg 97%
    03:00 +21°C° 0 mm 1 mps 698 mmHg 97%
    04:00 +21°C° 0 mm 1 mps 698 mmHg 96%
    05:00 +21°C° 0 mm 1 mps 698 mmHg 96%
    06:00 +21°C° 0 mm 1 mps 699 mmHg 92%
    07:00 +20°C° 0 mm 0 mps 699 mmHg 88%
    08:00 +21°C° 0 mm 0 mps 700 mmHg 84%
    09:00 +24°C° 0 mm 1 mps 700 mmHg 81%
    10:00 +25°C° 0 mm 1 mps 699 mmHg 77%
    11:00 +26°C° 0 mm 2 mps 699 mmHg 73%
    12:00 +26°C° 0 mm 2 mps 699 mmHg 72%
    13:00 +27°C° 0 mm 2 mps 699 mmHg 71%
    14:00 +27°C° 0 mm 3 mps 698 mmHg 69%
    15:00 +26°C° 0 mm 3 mps 698 mmHg 73%
    16:00 +26°C° 0 mm 3 mps 698 mmHg 77%
    17:00 +25°C° 0 mm 3 mps 698 mmHg 81%
    18:00 +24°C° 0 mm 2 mps 698 mmHg 85%
    19:00 +23°C° 0 mm 2 mps 698 mmHg 89%
    20:00 +21°C° 0 mm 2 mps 699 mmHg 92%
    21:00 +20°C° 0.2 mm 2 mps 699 mmHg 93%
    22:00 +20°C° 0.2 mm 2 mps 699 mmHg 94%
    23:00 +20°C° 0.2 mm 1 mps 700 mmHg 95%

    27 November, Wednesday

    Time Temperature Precipitation Wind Pressure Humidity
    00:00 +20°C° 0.1 mm 1 mps 699 mmHg 95%
    01:00 +20°C° 0.1 mm 1 mps 699 mmHg 95%
    02:00 +20°C° 0.1 mm 1 mps 699 mmHg 95%
    03:00 +20°C° 0 mm 1 mps 699 mmHg 95%
    04:00 +19°C° 0 mm 1 mps 699 mmHg 95%
    05:00 +17°C° 0 mm 0 mps 699 mmHg 95%
    06:00 +20°C° 0 mm 1 mps 700 mmHg 91%
    07:00 +21°C° 0 mm 1 mps 700 mmHg 87%
    08:00 +22°C° 0 mm 1 mps 701 mmHg 83%
    09:00 +24°C° 0 mm 1 mps 701 mmHg 77%
    10:00 +26°C° 0 mm 2 mps 701 mmHg 71%
    11:00 +27°C° 0 mm 2 mps 701 mmHg 65%
    12:00 +28°C° 0 mm 2 mps 700 mmHg 61%
    13:00 +30°C° 0 mm 2 mps 699 mmHg 58%
    14:00 +31°C° 0 mm 3 mps 698 mmHg 54%
    15:00 +30°C° 0 mm 3 mps 698 mmHg 58%
    16:00 +30°C° 0 mm 3 mps 698 mmHg 61%
    17:00 +29°C° 0 mm 3 mps 697 mmHg 65%
    18:00 +27°C° 0 mm 2 mps 697 mmHg 72%
    19:00 +25°C° 0 mm 2 mps 697 mmHg 80%
    20:00 +23°C° 0 mm 1 mps 697 mmHg 87%
    21:00 +23°C° 0 mm 1 mps 698 mmHg 90%
    22:00 +22°C° 0 mm 1 mps 698 mmHg 93%
    23:00 +21°C° 0 mm 1 mps 698 mmHg 96%
    Show more